User: anonymous   Login
Location: Iroquois Falls
(48.7680°N, 80.6732°W)
Time: 12:41:54
(UTC-04:00)
Language:

ISS - Orbit

View from above orbital plane
View from above orbital plane
View from above satellite
View from above satellite

Ground track
Ground track

The orbit data is extracted from the following two-line orbital elements,

1 25544U 98067A   24173.53938041  .00017886  00000-0  32461-3 0  9999
2 25544  51.6406 293.7249 0010678 351.2952 118.2352 15.49600031459222
Epoch (UTC): 21 June 2024 12:56:42
Eccentricity: 0.0010678
inclination: 51.6406°
perigee height: 410 km
apogee height: 425 km
right ascension of ascending node: 293.7249°
argument of perigee: 351.2952°
revolutions per day: 15.49600031
mean anomaly at epoch: 118.2352°
orbit number at epoch: 45922

The dashed part of the orbit path shows where the satellite is in the earth's shadow,  

DLR